Total_Precipitation_Accumulation
2.61 2.70 3.25 3.11 2.86 2.75 2.53 2.64 2.81 2.86 3.01 3.11 3.16 2.89 2.74 2.76 2.80 3.02 3.19 3.38 3.67 3.92 3.96 3.81 3.79 3.72 3.52 3.37 3.39 3.19 3.02 3.02 3.00 2.92 2.95 2.90 3.03 3.16 3.43 3.58 3.64 2.87 2.54
1.98 2.15 2.86 2.83 2.70 2.80 2.77 2.81 2.72 2.71 2.93 3.17 2.92 2.59 2.47 2.50 2.57 2.90 3.28 3.50 3.87 4.18 3.90 3.62 3.64 3.60 3.55 3.47 3.33 3.17 3.13 3.25 3.34 3.55 3.72 3.41 3.49 3.45 3.45 3.29 3.48 2.95 2.68
1.60 1.67 2.13 2.65 2.65 2.84 2.88 2.59 2.58 2.65 2.78 2.88 2.63 2.51 2.51 2.58 2.62 2.80 2.99 3.22 3.79 3.96 3.73 3.58 3.51 3.51 3.47 3.60 3.42 3.20 3.30 3.44 3.68 4.13 4.39 3.37 2.87 3.29 3.33 3.17 3.05 2.82 2.54
1.39 1.35 1.55 2.27 2.65 2.91 2.70 2.48 2.46 2.63 2.76 2.53 2.46 2.43 2.53 2.79 2.97 3.19 3.20 3.25 3.45 3.53 3.44 3.44 3.39 3.57 3.54 3.38 3.32 3.38 3.52 3.43 3.68 4.07 3.91 2.81 2.16 2.68 2.98 2.84 2.78 2.73 2.67
1.26 1.30 1.63 2.35 2.61 2.63 2.58 2.41 2.38 2.65 2.62 2.41 2.25 2.19 2.36 2.61 2.91 3.00 3.15 3.31 3.22 3.33 3.38 3.42 3.33 3.54 3.52 3.31 3.38 3.51 3.56 3.49 3.62 3.38 2.79 2.90 2.80 2.72 2.59 2.67 3.06 3.18 2.99
1.27 1.40 1.83 2.36 2.46 2.56 2.52 2.45 2.44 2.55 2.48 2.31 2.18 2.19 2.39 2.49 2.57 2.53 2.68 2.93 2.99 3.10 3.28 3.44 3.45 3.55 3.59 3.57 3.63 3.52 3.31 3.24 3.04 2.26 2.18 2.62 2.67 2.69 2.60 2.86 3.20 3.38 3.26
1.30 1.55 1.96 2.38 2.45 2.58 2.35 2.32 2.35 2.31 2.25 2.19 2.15 2.09 2.26 2.37 2.44 2.46 2.51 2.71 2.96 3.18 3.26 3.36 3.52 3.59 3.81 4.27 4.17 3.63 3.18 2.99 2.44 1.99 2.09 2.47 2.49 2.48 2.83 3.06 3.11 3.10 3.03
1.62 1.81 2.23 2.62 2.70 2.71 2.45 2.33 2.30 2.19 2.12 2.13 2.12 2.11 2.06 2.22 2.33 2.37 2.45 2.64 2.98 3.39 3.35 3.32 3.49 3.51 4.10 4.49 3.99 3.33 3.03 2.50 1.86 1.85 1.99 2.24 2.15 2.27 2.75 3.08 3.24 3.36 3.17
1.89 2.00 2.25 2.63 2.77 2.80 2.63 2.54 2.34 2.22 2.19 2.25 2.24 2.14 2.19 2.18 2.14 2.11 2.25 2.60 2.84 3.28 3.20 3.29 3.47 3.71 4.09 3.91 3.41 3.13 2.94 2.57 1.99 2.04 1.92 2.05 2.01 2.27 2.60 2.82 2.97 3.23 3.21
2.26 2.21 2.10 2.23 2.56 2.44 2.28 2.39 2.30 2.26 2.32 2.41 2.46 2.42 2.59 2.51 2.23 2.24 2.29 2.55 2.75 2.95 2.91 3.00 3.28 3.56 3.50 3.36 3.13 3.06 2.98 2.63 2.11 2.13 2.25 1.97 2.07 2.47 2.69 2.66 2.89 3.18 3.02
2.65 2.30 2.01 2.01 2.29 2.24 2.02 2.08 2.52 2.63 2.60 2.68 2.89 3.01 3.33 3.37 2.80 2.79 2.49 2.70 2.96 2.93 2.88 3.10 3.32 3.64 3.65 3.45 3.37 3.32 3.01 2.48 2.44 2.49 2.67 2.18 2.18 2.68 2.95 2.98 2.94 2.82 2.77
2.67 2.62 2.35 2.12 2.05 2.09 1.92 2.14 2.91 2.89 2.92 3.17 3.51 3.43 3.66 3.60 3.30 2.52 2.62 3.19 3.36 3.38 3.49 3.87 4.23 4.02 3.71 3.58 3.80 3.94 3.10 2.68 2.62 2.50 2.53 2.29 2.44 3.02 3.40 3.43 3.25 2.76 2.64
2.61 2.48 2.57 2.42 2.23 2.22 2.43 2.37 2.72 3.10 3.29 3.39 3.34 3.30 3.48 3.10 2.84 2.66 3.15 3.70 3.58 3.53 3.70 4.14 4.50 3.59 3.61 4.30 4.30 3.95 3.54 3.26 3.01 2.84 2.84 2.73 2.94 3.53 3.96 3.98 3.74 3.10 2.81
2.84 2.71 2.98 2.90 2.83 2.88 2.70 2.69 2.63 2.70 2.76 2.80 2.98 2.83 2.90 3.06 3.02 3.16 3.55 3.63 3.63 3.78 4.18 4.06 4.25 4.07 4.19 4.20 4.11 4.09 4.05 3.79 3.51 3.43 3.68 3.41 3.41 3.68 4.28 4.33 3.91 3.52 3.30
3.25 3.30 3.42 3.43 3.58 3.48 3.28 3.11 2.63 2.68 2.58 2.49 2.59 2.55 2.69 3.04 3.25 3.65 3.57 3.61 3.31 3.46 3.84 4.19 4.19 4.41 4.68 4.52 3.98 3.74 3.87 3.76 3.45 3.22 3.37 3.57 3.67 3.69 4.19 4.52 4.19 3.86 3.69
3.75 3.99 3.95 3.94 3.99 3.86 3.53 3.30 3.02 2.67 2.70 2.47 2.50 2.58 3.04 3.31 3.47 3.84 3.76 3.64 3.29 3.31 3.70 4.05 4.09 4.40 4.51 4.54 3.98 3.65 3.68 3.60 3.27 2.96 3.03 3.50 3.60 3.54 3.84 4.31 4.43 4.34 4.15
4.35 4.57 4.78 4.65 4.35 4.46 4.12 3.38 2.87 2.59 2.44 2.60 2.79 2.85 3.16 3.33 3.72 4.04 3.97 3.53 3.26 3.37 3.63 3.65 3.81 4.27 4.16 4.08 3.97 3.83 3.74 3.52 3.19 3.11 3.05 3.26 3.14 3.32 3.65 3.85 4.17 4.50 4.59
4.86 5.31 5.54 5.09 5.00 5.07 4.77 4.20 3.57 3.23 3.09 3.16 3.24 3.09 2.90 3.13 3.35 3.77 3.50 3.04 3.08 3.27 3.57 3.67 3.60 3.98 4.13 4.12 4.15 3.96 3.75 3.55 3.14 3.03 3.04 3.02 3.03 2.83 3.17 3.53 3.94 4.30 4.74
5.11 5.83 6.27 6.50 6.03 5.68 5.11 4.70 4.14 3.83 3.68 3.44 3.25 2.98 2.69 2.51 2.45 2.84 2.83 2.74 2.74 3.05 3.17 2.82 3.10 3.43 3.67 3.83 3.49 3.43 3.09 2.92 2.83 2.61 2.57 2.50 2.74 2.91 3.09 3.16 3.54 3.87 4.57
5.19 5.91 6.35 6.67 6.20 5.49 5.17 5.16 4.83 4.26 3.79 3.42 3.12 2.93 2.55 2.48 2.27 2.55 2.58 2.42 2.37 2.66 2.83 2.97 3.27 3.29 3.16 3.23 2.76 2.79 2.78 2.56 2.58 2.53 2.35 2.36 2.49 2.46 2.77 3.10 3.41 3.19 3.77
5.55 6.22 6.39 6.22 5.59 5.10 4.69 4.45 4.21 3.99 3.70 3.19 2.81 2.61 2.52 2.39 2.41 2.74 2.52 2.60 2.43 2.49 2.59 2.67 2.89 2.97 2.75 2.92 3.27 3.12 2.79 2.52 2.48 2.42 2.36 2.47 2.51 2.60 2.81 3.23 3.44 3.46 3.33
5.11 5.46 5.58 5.27 4.58 4.13 3.91 3.88 3.62 3.44 3.13 2.92 2.68 2.72 2.34 2.22 2.32 2.28 2.53 2.40 2.35 2.59 2.57 2.66 2.90 2.84 2.54 2.71 3.23 3.50 3.30 3.27 2.71 2.04 2.23 2.38 2.45 2.72 2.75 2.71 2.96 3.51 3.58
4.60 4.38 4.10 3.96 3.64 3.59 3.58 3.42 3.21 3.17 2.92 2.76 2.56 2.53 2.21 1.96 1.96 2.09 2.17 2.16 2.34 2.31 2.55 2.69 2.77 2.94 2.91 2.66 2.66 3.18 3.24 3.26 2.97 2.36 2.01 2.12 2.45 2.83 2.85 2.81 2.75 3.10 3.45
3.62 3.33 3.18 3.16 3.15 3.15 3.07 2.97 2.70 2.59 2.58 2.43 2.35 2.40 2.31 2.02 1.94 1.98 2.05 2.24 2.34 2.22 2.58 2.32 2.48 2.86 3.03 2.74 2.71 2.62 2.69 2.92 3.01 2.84 2.43 2.10 2.28 2.45 2.66 2.67 2.69 2.98 3.26
2.38 2.52 2.64 2.82 2.99 2.92 2.88 2.90 2.87 2.58 2.53 2.49 2.49 2.62 2.53 2.27 2.04 1.86 2.09 2.41 2.51 2.35 2.41 2.50 2.82 2.78 2.77 2.74 2.70 2.63 2.72 2.79 2.61 2.69 2.68 2.47 2.29 1.94 2.07 2.41 2.68 2.82 2.98
1.70 1.94 2.18 2.32 2.48 2.66 2.73 2.61 2.56 2.53 2.61 2.66 2.62 2.48 2.31 2.19 2.09 1.99 2.15 2.44 2.48 2.54 2.53 2.49 2.60 2.66 2.77 2.86 2.76 2.54 2.61 2.72 2.73 2.85 2.59 2.51 2.53 2.14 2.18 2.45 2.57 2.76 2.79